TimePST,TemperatureF,Dew PointF,Humidity,Sea Level PressureIn,VisibilityMPH,Wind Direction,Wind SpeedMPH,Gust SpeedMPH,PrecipitationIn,Events,Conditions,WindDirDegrees,DateUTC
12:56 AM,39.0,19.9,46,30.27,10.0,NE,5.8,-,N/A,,Clear,40,2013-01-14 08:56:00
1:56 AM,39.0,16.0,39,30.30,10.0,North,3.5,-,N/A,,Clear,360,2013-01-14 09:56:00
2:56 AM,41.0,12.9,32,30.31,10.0,NNE,3.5,-,N/A,,Clear,20,2013-01-14 10:56:00
3:56 AM,39.0,16.0,39,30.32,10.0,NE,5.8,-,N/A,,Clear,50,2013-01-14 11:56:00
4:56 AM,39.0,14.0,36,30.34,10.0,NE,8.1,-,N/A,,Clear,40,2013-01-14 12:56:00
5:56 AM,37.0,17.1,44,30.35,10.0,South,3.5,-,N/A,,Clear,190,2013-01-14 13:56:00
6:56 AM,36.0,17.1,46,30.38,10.0,Calm,Calm,-,N/A,,Clear,0,2013-01-14 14:56:00
7:56 AM,36.0,18.0,48,30.40,10.0,North,5.8,-,N/A,,Clear,360,2013-01-14 15:56:00
8:56 AM,41.0,14.0,33,30.43,10.0,Calm,Calm,-,N/A,,Clear,0,2013-01-14 16:56:00
9:56 AM,44.1,16.0,32,30.43,10.0,NNE,9.2,-,N/A,,Clear,20,2013-01-14 17:56:00
10:56 AM,45.0,16.0,31,30.43,10.0,North,10.4,-,N/A,,Clear,360,2013-01-14 18:56:00
11:56 AM,46.9,19.0,33,30.41,10.0,NNE,8.1,-,N/A,,Clear,20,2013-01-14 19:56:00
12:56 PM,46.9,18.0,32,30.38,10.0,WNW,6.9,-,N/A,,Clear,300,2013-01-14 20:56:00
1:56 PM,48.9,18.0,29,30.38,10.0,Calm,Calm,-,N/A,,Clear,0,2013-01-14 21:56:00
2:56 PM,50.0,18.0,28,30.39,10.0,Calm,Calm,-,N/A,,Clear,0,2013-01-14 22:56:00
3:56 PM,51.1,17.1,26,30.39,10.0,Calm,Calm,-,N/A,,Clear,0,2013-01-14 23:56:00
4:56 PM,48.0,19.0,32,30.39,10.0,North,3.5,-,N/A,,Clear,350,2013-01-15 00:56:00
5:56 PM,46.0,19.0,34,30.39,10.0,Calm,Calm,-,N/A,,Clear,0,2013-01-15 01:56:00
6:56 PM,45.0,21.9,40,30.40,10.0,Calm,Calm,-,N/A,,Clear,0,2013-01-15 02:56:00
7:56 PM,43.0,24.1,47,30.41,10.0,Calm,Calm,-,N/A,,Clear,0,2013-01-15 03:56:00
8:56 PM,41.0,24.1,51,30.40,10.0,WSW,3.5,-,N/A,,Clear,250,2013-01-15 04:56:00
9:56 PM,39.9,24.1,53,30.40,10.0,Calm,Calm,-,N/A,,Clear,0,2013-01-15 05:56:00
10:56 PM,39.0,25.0,57,30.41,10.0,Calm,Calm,-,N/A,,Clear,0,2013-01-15 06:56:00
11:56 PM,37.0,26.1,65,30.43,10.0,Calm,Calm,-,N/A,,Clear,0,2013-01-15 07:56:00